Change the Weather History Date:

Tuesday, November 19, 2013

  Actual Average Record
Temperature  
Mean Temperature 59 °F 54 °F  
Max Temperature 67 °F 64 °F 83 °F (1925)
Min Temperature 51 °F 45 °F 21 °F (1903)
Degree Days  
Heating Degree Days 6 11  
Month to date heating degree days 150 153  
Since 1 July heating degree days 192 230  
Cooling Degree Days 0 0  
Month to date cooling degree days 14 14  
Year to date cooling degree days 2764 2407  
Growing Degree Days 9 (Base 50)    
Moisture  
Dew Point 32 °F    
Average Humidity 37    
Maximum Humidity 51    
Minimum Humidity 23    
Precipitation  
Precipitation 0.00 in 0.13 in 1.63 in (1953)
Month to date precipitation 1.27 2.73  
Year to date precipitation 35.51 40.18  
Snow  
Snow 0.00 in - - ()
Month to date snowfall 0.0  
Since 1 July snowfall 0.0  
Since 1 September snowfall 0.0  
Snow Depth 0.00 in    
Sea Level Pressure  
Sea Level Pressure 30.13 in    
Wind  
Wind Speed 10 mph (ESE)    
Max Wind Speed 21 mph    
Max Gust Speed 30 mph    
Visibility 10 miles    
Events      
T = Trace of Precipitation, MM = Missing Value Source: NWS Daily Summary

Daily Weather History Graph

Daily Weather History Graph

Search for Another Location

Airport or City:

Trip Planner

Search our weather history database for the weather conditions in past years. The results will help you decide how hot, cold, wet, or windy it might be!

Date:

Astronomy

Nov. 19, 2013 Rise Set
Actual Time 6:54 AM CST 5:19 PM CST
Civil Twilight 6:28 AM CST 5:45 PM CST
Nautical Twilight 5:58 AM CST 6:15 PM CST
Astronomical Twilight 5:29 AM CST 6:44 PM CST
Moon 7:11 PM CST (11/19) 8:33 AM CST (11/19)
Length of Visible Light 11h 16m
Length of Day
10h 24m
Waning Gibbous, 96% of the Moon is Illuminated
Nov 19
Waning Gibbous
Nov 25
Last Quarter
Dec 2
New
Dec 9
First Quarter
Dec 17
Full

Hourly Weather History & Observations

Time (CST) Temp. Dew Point Humidity Pressure Visibility Wind Dir Wind Speed Gust Speed Precip Events Conditions
12:53 AM 57.0 °F 39.9 °F 53% 30.14 in 10.0 mi East 10.4 mph - N/A   Clear
1:53 AM 57.9 °F 37.9 °F 47% 30.15 in 10.0 mi East 13.8 mph 19.6 mph N/A   Clear
2:53 AM 57.0 °F 36.0 °F 45% 30.15 in 10.0 mi ESE 10.4 mph - N/A   Clear
3:53 AM 57.0 °F 36.0 °F 45% 30.15 in 10.0 mi East 11.5 mph - N/A   Clear
4:53 AM 55.9 °F 37.0 °F 49% 30.17 in 10.0 mi East 9.2 mph - N/A   Clear
5:53 AM 55.9 °F 35.1 °F 45% 30.18 in 10.0 mi East 11.5 mph - N/A   Clear
6:53 AM 55.0 °F 35.1 °F 47% 30.18 in 10.0 mi East 10.4 mph - N/A   Clear
7:53 AM 55.0 °F 35.1 °F 47% 30.20 in 10.0 mi East 8.1 mph - N/A   Clear
8:53 AM 57.0 °F 30.0 °F 36% 30.20 in 10.0 mi East 17.3 mph 23.0 mph N/A   Clear
9:53 AM 59.0 °F 28.0 °F 31% 30.20 in 10.0 mi East 13.8 mph 23.0 mph N/A   Clear
10:53 AM 63.0 °F 25.0 °F 24% 30.19 in 10.0 mi ESE 17.3 mph - N/A   Partly Cloudy
11:53 AM 64.9 °F 26.1 °F 23% 30.16 in 10.0 mi East 15.0 mph - N/A   Mostly Cloudy
12:53 PM 64.9 °F 28.0 °F 25% 30.13 in 10.0 mi East 11.5 mph - N/A   Clear
1:53 PM 66.0 °F 28.0 °F 24% 30.10 in 10.0 mi ESE 11.5 mph - N/A   Clear
2:53 PM 64.9 °F 28.0 °F 25% 30.09 in 10.0 mi SE 4.6 mph - N/A   Overcast
3:53 PM 64.9 °F 28.0 °F 25% 30.08 in 10.0 mi ESE 8.1 mph - N/A   Mostly Cloudy
4:53 PM 63.0 °F 30.9 °F 30% 30.08 in 10.0 mi ESE 8.1 mph - N/A   Clear
5:53 PM 59.0 °F 30.9 °F 35% 30.08 in 10.0 mi ESE 6.9 mph - N/A   Clear
6:53 PM 57.9 °F 32.0 °F 37% 30.08 in 10.0 mi ESE 9.2 mph - N/A   Clear
7:53 PM 55.0 °F 34.0 °F 45% 30.09 in 10.0 mi SE 5.8 mph - N/A   Clear
8:53 PM 53.1 °F 34.0 °F 48% 30.09 in 10.0 mi ESE 6.9 mph - N/A   Clear
9:53 PM 52.0 °F 34.0 °F 50% 30.09 in 10.0 mi ESE 6.9 mph - N/A   Clear
10:53 PM 53.1 °F 30.9 °F 43% 30.08 in 10.0 mi SE 10.4 mph - N/A   Clear
11:53 PM 51.1 °F 32.0 °F 48% 30.07 in 10.0 mi ESE 10.4 mph - N/A   Clear